Wind_Speed
25 26 26 27 29 29 29 30 31 34 34 32 32 33 30 28 27 27 30 29 31 29 30 32 30 29 28 26 25 25 27 29 33 33 30 30 30 27 25 24 24 25 25
26 27 29 31 31 31 32 33 33 35 37 36 35 35 36 32 30 28 28 31 29 30 30 32 32 32 29 28 27 27 29 29 31 34 34 32 31 28 27 26 26 26 26
27 28 29 31 33 35 34 32 31 33 37 38 40 38 37 37 34 31 28 29 32 31 31 34 35 34 32 31 30 31 31 31 32 34 34 35 33 30 28 27 28 28 29
28 29 30 30 30 31 31 31 28 27 31 35 40 41 39 38 38 35 33 32 31 32 34 34 34 38 37 33 31 34 34 33 34 35 36 36 35 33 31 29 29 29 30
28 30 31 31 29 28 28 27 26 26 28 31 34 38 42 41 39 38 35 33 32 32 33 38 38 40 41 35 33 35 37 36 37 37 36 37 37 35 34 32 31 30 30
29 30 31 32 30 27 26 25 25 25 24 27 31 36 38 41 39 40 41 35 32 32 33 38 42 38 42 39 36 35 39 38 39 40 39 39 38 38 37 34 32 30 31
29 30 31 31 27 26 24 23 23 26 26 23 27 32 34 35 35 35 38 42 37 33 32 36 40 42 39 42 42 38 39 41 40 42 43 41 40 39 39 38 37 33 33
30 31 32 30 24 25 24 22 21 23 23 19 22 26 17 21 16 10 15 31 43 40 31 33 36 39 44 44 42 43 39 41 42 42 44 45 43 40 40 41 38 37 36
30 32 32 30 24 21 22 21 21 20 23 21 16 14 10 7 31 8 1 6 20 38 41 33 31 36 38 45 44 44 45 40 43 43 44 46 45 42 42 42 41 34 39
30 32 33 29 24 21 20 20 20 19 18 22 19 14 20 24 16 19 21 11 8 15 24 35 34 36 36 40 42 46 46 46 43 44 44 46 45 44 43 42 41 38 38
28 31 33 30 25 22 20 20 18 16 15 16 18 22 22 21 24 29 35 35 27 17 18 16 29 35 39 41 42 44 41 42 46 44 45 45 45 45 45 44 42 41 41
26 30 31 30 26 22 20 19 17 16 15 14 17 20 23 23 21 22 26 29 34 33 27 25 22 24 31 38 43 45 41 50 46 47 43 42 44 45 46 45 45 44 43
25 29 31 29 29 25 20 17 18 17 14 14 17 20 20 20 21 24 31 31 33 34 38 33 26 23 25 29 36 43 44 46 34 43 41 42 41 44 46 46 47 46 45
24 25 27 27 29 29 23 19 18 18 15 14 14 15 17 17 21 24 29 30 30 30 31 42 38 26 25 24 30 38 43 47 44 37 41 42 45 43 46 47 47 48 48
22 22 23 25 27 29 26 21 21 20 19 16 14 15 14 17 22 24 25 24 24 29 29 28 33 21 22 29 24 31 41 43 43 46 46 43 42 45 45 46 48 49 49
19 19 21 22 23 25 27 26 22 20 19 20 18 15 16 15 17 20 27 31 34 29 35 31 26 26 19 23 26 22 27 41 38 38 45 46 45 45 49 47 46 48 50
19 18 19 21 24 24 24 24 25 26 26 24 21 20 20 17 18 16 15 21 26 28 31 33 29 27 24 14 17 19 21 28 33 39 43 45 44 38 40 45 51 48 50
19 18 17 18 21 25 25 24 24 24 26 29 31 30 26 23 24 21 14 9 11 17 23 23 22 14 14 16 16 14 11 14 22 28 29 25 33 39 42 50 40 46 53
18 17 16 18 20 23 24 26 27 25 24 24 26 30 34 34 29 30 24 14 8 2 8 20 17 15 13 12 11 13 12 13 17 18 20 20 21 21 24 33 45 57 54
18 19 18 17 18 20 23 23 23 25 25 26 24 26 28 31 35 31 31 24 20 16 17 18 10 9 7 6 6 8 6 9 13 10 18 19 20 26 27 27 35 44 56
18 18 19 19 20 21 22 23 23 24 25 26 26 26 27 25 23 27 29 32 27 26 26 26 25 22 17 11 8 6 10 5 4 2 6 12 15 20 25 25 34 41 44
17 18 19 21 22 22 22 22 23 24 25 28 29 27 26 25 25 23 24 26 30 31 33 33 30 27 23 18 14 8 9 10 7 9 12 11 7 4 4 11 21 31 38
14 17 20 21 23 23 21 22 22 24 25 27 31 30 28 26 25 24 24 23 24 28 32 31 29 29 24 19 15 14 14 13 20 14 18 22 20 20 18 17 15 3 11
13 16 19 20 20 23 20 22 22 23 26 27 29 31 29 28 26 24 24 26 27 26 29 28 26 25 23 17 18 19 19 20 20 19 20 24 23 23 19 20 20 19 18
11 15 18 18 19 20 21 19 20 24 25 28 27 29 29 28 26 25 24 25 26 27 25 25 26 24 21 16 15 17 17 20 24 21 16 14 14 17 15 19 18 19 19
9 13 15 17 18 17 19 20 19 22 24 25 27 28 28 29 27 26 26 27 27 26 22 20 19 21 23 26 25 23 20 21 13 13 15 11 9 4 5 16 16 14 12
Wind_Direction
322 319 315 308 303 297 291 284 279 275 273 265 257 256 255 256 260 261 264 259 246 241 242 237 233 234 236 236 235 231 221 213 211 211 209 203 205 209 214 211 211 207 206
327 323 319 315 310 303 298 293 287 281 276 272 265 257 256 252 253 256 257 263 255 240 239 236 238 236 236 237 235 231 225 215 214 216 211 209 209 210 211 213 214 211 210
333 330 325 320 316 312 307 298 290 285 279 275 272 264 259 255 249 250 253 258 256 248 239 232 232 237 238 236 236 231 226 218 211 209 211 212 213 213 211 214 216 214 213
339 337 333 328 321 317 314 311 305 291 284 279 274 270 264 258 252 246 246 249 252 251 241 236 230 234 238 235 236 232 226 222 213 210 212 214 216 215 213 214 219 219 216
347 345 342 338 331 324 320 317 313 311 302 290 282 275 271 264 256 248 245 242 248 252 249 244 242 234 231 233 238 232 228 225 219 214 215 215 217 217 216 216 218 220 219
351 349 347 342 337 331 326 319 313 306 310 313 299 284 275 271 264 253 245 241 241 246 244 244 242 237 233 230 237 232 230 228 224 219 218 218 219 219 219 217 217 220 221
356 353 350 347 339 337 335 329 322 315 305 309 316 302 285 282 279 270 256 246 240 245 247 244 243 238 237 232 230 233 230 228 228 223 221 222 223 223 223 221 218 216 221
2 358 354 352 345 340 336 330 326 322 318 308 308 315 324 306 279 288 278 256 245 243 250 249 247 244 239 239 229 232 231 230 230 227 224 225 226 225 225 225 227 227 224
4 2 360 355 351 346 338 334 331 325 315 314 306 290 322 312 324 267 175 252 243 245 250 256 252 248 245 240 237 228 231 230 232 230 227 227 227 227 227 227 229 228 224
8 7 3 359 358 352 343 338 333 325 316 311 312 296 271 279 298 310 279 232 237 232 244 252 258 256 250 246 241 235 233 232 232 233 232 230 229 229 229 229 229 229 223
11 9 6 5 0 358 349 345 340 335 326 316 311 303 291 282 275 276 288 291 265 255 261 259 255 251 255 252 244 237 236 234 234 233 234 234 231 231 231 230 230 230 230
11 7 10 10 5 0 358 353 345 336 323 309 311 309 294 281 276 276 281 286 280 268 267 253 268 261 254 253 242 241 237 235 239 232 233 238 237 234 231 232 231 230 230
8 7 8 14 7 5 6 5 353 341 328 316 310 303 303 292 293 286 282 280 283 284 267 253 259 271 264 257 247 241 239 235 248 238 233 238 240 239 237 234 233 232 231
8 6 7 16 17 8 12 14 8 359 346 329 321 307 294 273 268 277 279 279 280 281 279 259 253 276 267 264 254 244 241 233 231 236 240 239 240 242 241 238 234 233 233
9 8 8 15 21 17 17 24 20 13 1 349 338 343 325 288 276 267 264 259 276 271 270 275 263 272 275 264 260 253 237 233 233 248 237 235 238 240 242 240 237 235 234
10 13 14 18 23 24 19 27 36 29 20 10 359 353 357 335 305 290 275 271 263 266 262 258 264 268 283 260 254 264 253 241 247 236 241 238 240 242 242 241 242 239 236
15 14 17 22 29 28 25 22 34 40 38 29 13 8 23 18 357 334 299 276 264 255 261 265 263 270 270 253 235 240 246 246 245 247 247 245 241 244 251 246 244 244 241
19 19 20 24 35 34 31 28 24 33 36 39 35 26 19 24 26 17 354 298 287 245 244 243 244 227 233 253 245 240 243 243 245 253 257 252 254 258 256 255 256 254 245
23 24 23 28 37 37 34 34 33 29 34 32 34 36 29 21 27 28 28 26 31 287 207 207 205 213 192 184 184 200 198 199 224 216 218 228 235 248 260 246 250 255 264
26 27 29 31 36 41 39 36 36 37 37 38 38 34 35 28 25 27 35 37 51 66 83 108 153 92 172 137 134 162 170 200 233 248 247 247 263 265 271 271 261 258 259
27 29 32 37 37 38 38 36 33 37 41 41 39 43 42 34 29 34 34 40 48 58 60 71 74 73 63 65 80 120 125 113 108 230 252 264 269 270 266 265 260 263 280
26 29 32 35 39 38 35 37 35 37 38 41 38 40 42 42 37 38 39 38 47 51 57 62 61 59 57 61 57 79 170 155 94 95 96 88 67 8 317 270 252 242 254
26 30 34 34 42 38 38 36 35 37 39 41 39 36 39 43 41 41 47 50 54 55 55 56 60 57 51 55 66 73 84 113 109 105 104 90 86 82 84 81 75 83 238
29 33 36 36 36 42 39 41 39 40 43 41 41 31 36 39 41 42 47 51 56 58 61 62 60 58 58 63 71 74 87 94 106 107 109 88 84 73 76 79 87 87 93
26 29 31 33 34 40 36 36 37 40 43 44 42 42 29 35 38 40 47 53 57 61 64 67 70 71 71 62 74 93 88 93 84 75 83 90 83 68 57 63 61 74 68
19 22 25 25 28 33 39 36 36 40 38 43 40 40 36 34 35 36 41 44 47 51 59 68 70 67 63 63 61 65 63 70 76 62 58 58 65 91 65 34 44 39 39
Height
1494 1491 1488 1486 1482 1481 1478 1476 1472 1470 1469 1470 1471 1471 1472 1473 1474 1475 1476 1478 1481 1485 1486 1487 1490 1493 1494 1495 1497 1499 1501 1504 1508 1512 1514 1516 1519 1522 1525 1529 1532 1534 1537
1490 1487 1483 1480 1477 1474 1472 1468 1466 1463 1461 1460 1461 1461 1462 1464 1467 1468 1469 1470 1472 1476 1478 1480 1482 1486 1489 1490 1491 1494 1497 1498 1502 1506 1509 1512 1515 1518 1522 1525 1528 1531 1534
1487 1483 1479 1475 1471 1466 1463 1461 1459 1456 1453 1451 1449 1451 1453 1454 1457 1459 1461 1462 1464 1467 1472 1473 1476 1479 1482 1484 1486 1488 1491 1493 1496 1500 1505 1508 1511 1514 1517 1521 1524 1527 1530
1485 1480 1475 1471 1466 1462 1457 1452 1450 1448 1445 1442 1439 1440 1442 1443 1446 1450 1452 1454 1456 1458 1463 1466 1469 1471 1475 1477 1480 1482 1485 1488 1490 1494 1499 1503 1506 1509 1513 1516 1519 1523 1526
1482 1477 1471 1466 1462 1457 1453 1449 1445 1443 1438 1435 1432 1430 1430 1432 1436 1439 1442 1445 1448 1450 1452 1457 1461 1464 1466 1469 1472 1475 1478 1481 1484 1488 1492 1496 1500 1503 1507 1511 1514 1518 1522
1479 1474 1468 1463 1457 1453 1450 1446 1442 1439 1436 1432 1426 1421 1421 1421 1424 1427 1431 1437 1439 1441 1444 1447 1451 1455 1458 1460 1465 1469 1472 1474 1477 1481 1485 1489 1494 1498 1501 1505 1509 1512 1516
1476 1472 1466 1460 1454 1450 1446 1443 1438 1435 1432 1431 1425 1417 1412 1413 1414 1419 1423 1427 1430 1433 1436 1438 1441 1446 1450 1452 1455 1461 1464 1466 1469 1473 1478 1482 1486 1491 1495 1499 1502 1506 1511
1474 1470 1464 1457 1452 1447 1444 1440 1436 1432 1430 1430 1427 1422 1411 1409 1409 1413 1414 1417 1422 1427 1428 1431 1433 1436 1440 1443 1446 1452 1456 1459 1462 1465 1470 1475 1479 1484 1488 1492 1495 1499 1505
1473 1468 1462 1455 1449 1445 1441 1437 1434 1431 1427 1427 1428 1428 1421 1414 1409 1408 1408 1409 1413 1419 1421 1423 1425 1427 1431 1434 1439 1442 1447 1450 1455 1459 1462 1466 1472 1476 1481 1485 1489 1493 1497
1473 1467 1460 1453 1447 1443 1439 1435 1432 1429 1426 1423 1423 1424 1424 1421 1419 1407 1402 1404 1407 1409 1412 1414 1417 1419 1422 1425 1430 1431 1438 1443 1447 1452 1456 1459 1463 1469 1473 1477 1481 1486 1490
1472 1466 1460 1452 1446 1442 1438 1433 1430 1427 1425 1422 1421 1419 1419 1418 1417 1414 1404 1402 1401 1404 1405 1406 1409 1412 1413 1417 1421 1418 1428 1433 1439 1442 1447 1451 1455 1460 1465 1469 1473 1478 1482
1471 1466 1459 1452 1447 1441 1436 1431 1428 1425 1422 1420 1418 1416 1414 1413 1412 1410 1406 1403 1401 1395 1398 1399 1401 1403 1405 1407 1413 1416 1418 1422 1429 1429 1438 1442 1446 1450 1455 1460 1465 1469 1473
1469 1464 1459 1452 1447 1441 1435 1430 1427 1424 1420 1417 1415 1411 1409 1408 1407 1406 1403 1400 1396 1395 1393 1391 1394 1396 1397 1399 1402 1407 1412 1416 1418 1406 1428 1433 1437 1441 1447 1451 1456 1460 1465
1469 1465 1461 1454 1448 1443 1435 1429 1426 1423 1419 1416 1412 1408 1405 1403 1402 1402 1400 1398 1393 1390 1389 1384 1387 1390 1390 1392 1394 1398 1402 1407 1407 1413 1419 1423 1429 1432 1437 1443 1447 1452 1456
1469 1466 1461 1456 1450 1445 1439 1430 1426 1423 1419 1415 1410 1406 1402 1399 1396 1395 1393 1392 1390 1385 1381 1382 1383 1385 1385 1387 1389 1392 1395 1399 1405 1408 1410 1414 1418 1423 1429 1434 1438 1442 1448
1470 1467 1462 1457 1452 1447 1442 1434 1427 1423 1419 1415 1411 1406 1400 1395 1390 1387 1385 1384 1383 1382 1375 1379 1379 1381 1380 1381 1384 1385 1388 1393 1397 1401 1404 1405 1410 1414 1420 1425 1430 1434 1438
1471 1467 1464 1459 1453 1448 1443 1438 1431 1425 1419 1416 1412 1407 1399 1392 1387 1383 1378 1375 1374 1374 1370 1371 1377 1376 1375 1375 1377 1378 1379 1382 1385 1390 1394 1398 1402 1406 1410 1415 1420 1425 1430
1472 1469 1465 1461 1455 1450 1445 1439 1434 1427 1421 1417 1412 1408 1402 1394 1387 1382 1375 1370 1367 1367 1365 1367 1368 1367 1367 1370 1372 1373 1374 1376 1378 1380 1385 1383 1390 1396 1397 1406 1408 1412 1419
1474 1471 1467 1462 1457 1452 1447 1441 1436 1431 1425 1421 1415 1409 1404 1398 1389 1384 1375 1370 1365 1361 1358 1360 1360 1361 1363 1366 1365 1368 1370 1372 1373 1376 1380 1384 1386 1390 1394 1395 1396 1400 1402
1476 1472 1468 1464 1459 1455 1450 1445 1440 1434 1430 1425 1418 1412 1405 1402 1396 1390 1383 1374 1367 1364 1358 1352 1357 1354 1358 1361 1362 1364 1366 1368 1368 1369 1370 1374 1375 1377 1377 1380 1387 1390 1391
1478 1474 1470 1466 1460 1456 1452 1447 1443 1437 1433 1428 1423 1416 1411 1407 1403 1399 1393 1382 1374 1369 1360 1355 1355 1356 1359 1360 1362 1362 1364 1367 1365 1366 1367 1369 1368 1369 1369 1370 1371 1373 1381
1480 1476 1472 1466 1462 1458 1454 1450 1445 1440 1436 1431 1426 1422 1417 1412 1408 1404 1399 1391 1384 1375 1370 1361 1357 1359 1364 1364 1361 1362 1365 1365 1366 1367 1367 1367 1370 1369 1370 1368 1369 1367 1374
1481 1477 1473 1469 1464 1461 1457 1453 1448 1443 1439 1435 1431 1427 1422 1418 1414 1409 1404 1400 1392 1383 1375 1373 1374 1370 1367 1366 1372 1368 1366 1366 1366 1371 1371 1370 1372 1372 1373 1372 1364 1368 1364
1481 1479 1475 1471 1467 1464 1460 1456 1452 1448 1444 1440 1435 1432 1427 1423 1419 1415 1409 1403 1398 1393 1387 1384 1381 1380 1379 1377 1369 1370 1370 1369 1370 1371 1372 1374 1377 1377 1378 1375 1370 1373 1369
1482 1479 1477 1473 1469 1465 1463 1459 1456 1452 1448 1444 1440 1437 1432 1428 1424 1419 1414 1408 1402 1398 1396 1393 1390 1386 1382 1380 1377 1375 1373 1373 1371 1373 1376 1379 1381 1380 1381 1379 1374 1370 1371
1482 1481 1478 1474 1471 1468 1465 1462 1458 1455 1452 1448 1445 1441 1438 1433 1428 1422 1417 1412 1407 1404 1402 1399 1395 1391 1388 1384 1382 1380 1379 1376 1376 1378 1381 1384 1383 1381 1381 1379 1378 1378 1379